Location: El Carrer d�Abaix
(41.5797°N, 2.1791°E)
Time: 21:13:00
(UTC+00:00)

Cosmos 1242 Rocket - Pass Details

Date: 06 June 2020
Orbit: 447 x 487 km, 81.2° (Epoch: 04 July)

Event Time Altitude Azimuth Distance (km) Brightness Sun altitude
Exits shadow 21:52:25 26° 229° (SW) 996 4.0 -20.1°
Maximum altitude 21:54:02 42° 283° (WNW) 711 3.6 -20.3°
Drops below altitude 10° 21:57:33 10° 356° (N) 1,683 6.3 -20.6°
Sets 21:59:45 0° 3° (N) 2,566 7.2 -20.8°
